GEESAT 5-04

导读

GEESAT 5-04是中国吉利未来出行星座(GeeSAT)的第五组卫星之一,于2025年9月8日成功发射入轨。该卫星由吉利旗下时空道宇公司自主研发制造,属于低轨卫星星座的组成部分。依托天地一体化高精时空信息系统,GEESAT 5-04将赋能智慧出行、无人系统、智慧城市等领域,服务吉利汽车智能化出行生态,提供高精度时空信息服务,助力中国商业航天产业布局与发展。

Basic Information
目录编号:
65553
目录名称:
GEESAT 5-04
国际标识:
2025-201D
轨道中心:
EARTH
卫星名称:
GEESAT 5-04
卫星全名:
GEESAT 5-04
卫星状态:
在轨 (已飞行278 天)
发射日期:
2025-09-08 UTC
国别 :
中国 (CN)
星等 :
--
Orbit Information
数据来源 国际轨道数据 AOE轨道数据
星历时间 2026-06-12T07:42:18+0800
1天前
查看轨道信息
2026-06-07T01:00:00+0800
6天前
查看轨道信息
半长轴 6994.254km 6994.32km
偏心率 0.0008152 0.000855
轨道倾角 49.987° 49.982°
近地点辐角 251.917° 229.362°
升交点赤经 64.047° 88.540°
平近点角 108.088° 342.230°
近地点 610.415km 610.202km
远地点 621.819km 622.164km
周期 97.022分钟 97.024分钟
每日圈数 14.841942 14.841732
Detailed Information
使用方式:
暂无
2D Orbit Map
3D Orbit Map
Orbit Altitude Analysis Chart
Orbit Inclination Analysis Chart
Orbit Comprehensive Analysis Chart
View Comprehensive Chart